Location: ????????
(55.5667°N, 37.5833°E)
Time: 22:17:27
(UTC+00:00)

Cosmos 1140 Rocket - Pass Details

Date: 14 April 2026
Orbit: 740 x 761 km, 74.1° (Epoch: 13 May)

Event Time Altitude Azimuth Distance (km) Brightness Sun altitude
Rises 19:55:40 0° 331° (NNW) 3,216 8.3 -21.9°
Reaches altitude 10° 19:58:03 10° 331° (NNW) 2,284 7.1 -22.0°
Maximum altitude 20:03:14 82° 245° (WSW) 762 3.4 -22.3°
Enters shadow 20:04:18 57° 168° (SSE) 882 3.4 -22.4°
